Wetbulb
35.34 37.06 37.40 34.96 34.06 35.03 31.51 32.58 29.46 29.30 30.80 33.99 37.59 39.68 39.73 40.52 38.92 36.88 34.95 32.77 31.74 29.67 27.45 26.97 24.89 24.40 23.68 23.24 16.56 14.95 16.50 16.63 12.87 15.15 20.85 23.86 23.76 24.30 23.64 22.69 21.79 22.65 23.28 24.68
27.42 35.47 35.61 32.24 34.71 34.39 33.08 34.59 33.14 32.41 31.35 38.06 39.89 40.90 38.20 38.95 38.94 37.02 35.91 34.85 33.87 31.46 28.88 28.25 26.37 25.29 25.44 24.83 20.56 20.28 14.52 12.51 14.06 16.85 16.70 20.54 21.90 22.41 22.19 21.90 20.46 17.74 20.13 21.55
28.03 33.96 33.02 27.63 29.56 31.83 32.47 34.82 34.53 29.69 34.48 37.94 37.98 39.65 38.04 37.35 39.19 38.04 36.84 36.21 34.40 31.98 30.27 29.20 27.48 26.90 24.54 23.93 24.02 22.03 16.70 9.64 13.50 13.63 12.61 14.44 22.40 20.67 18.55 15.50 17.52 17.23 17.21 18.68
27.43 29.63 22.61 31.64 37.25 36.85 34.26 35.66 36.54 37.32 36.11 37.56 37.44 36.79 36.91 37.04 37.09 37.38 37.11 35.38 34.26 32.44 30.89 30.24 29.26 28.06 25.92 24.47 23.29 22.52 22.27 20.70 14.04 13.98 13.30 12.63 14.57 14.91 13.79 14.14 13.39 14.02 16.30 17.90
26.69 25.83 28.61 32.18 35.50 34.49 32.49 32.93 37.73 36.27 37.35 37.49 36.37 35.30 33.91 37.78 37.24 36.00 35.38 34.84 33.53 32.70 30.82 29.20 28.49 27.63 26.41 24.30 23.36 22.76 22.76 23.49 23.99 20.26 15.74 14.71 15.43 16.25 14.47 13.81 11.62 11.47 13.68 16.68
28.01 23.76 20.13 28.90 36.42 39.38 38.88 28.01 37.34 38.01 36.08 35.82 34.32 25.65 27.64 35.20 35.24 32.98 29.26 30.08 29.73 29.18 29.06 27.20 27.00 27.22 25.60 24.60 24.17 23.12 24.08 24.44 25.51 25.55 25.10 22.85 19.52 16.54 18.16 18.26 15.59 19.05 18.63 17.51
27.86 26.58 27.79 35.04 37.96 39.35 26.69 27.08 37.16 37.71 35.90 34.73 30.70 31.92 33.52 33.61 31.09 28.85 23.40 25.74 26.29 26.84 26.03 24.81 25.84 25.53 22.00 21.59 21.35 21.83 25.50 26.02 26.09 26.11 26.10 25.45 24.94 25.45 25.11 23.27 22.96 20.45 18.83 17.61
28.93 26.35 23.25 38.50 37.95 31.35 33.09 34.92 35.88 35.51 34.64 32.16 33.68 29.74 28.85 27.07 26.43 27.26 24.83 22.13 19.90 22.40 20.79 16.75 23.33 23.61 21.27 21.06 18.03 20.23 21.03 21.69 21.98 21.20 25.65 26.19 24.73 24.46 26.51 24.82 22.70 20.98 19.25 17.69
30.49 28.95 36.65 38.05 36.91 37.49 37.86 35.95 35.46 36.50 34.97 34.55 31.62 32.63 29.55 27.92 27.50 26.31 23.42 21.31 18.93 20.79 17.58 12.26 17.45 22.96 20.72 19.12 19.49 19.25 18.89 18.92 16.65 19.43 20.85 18.21 18.86 18.37 21.95 23.00 21.89 21.01 17.98 15.07
31.48 32.84 35.78 38.11 39.42 39.89 39.94 38.68 38.81 39.34 36.16 34.84 32.80 31.37 33.08 27.93 27.61 26.65 24.65 23.12 22.01 20.48 19.02 17.38 16.06 21.98 22.11 19.95 20.68 20.49 18.53 18.01 16.92 20.94 17.58 15.78 18.40 18.71 18.49 16.01 16.35 16.68 14.33 9.06
28.85 31.46 35.17 37.41 39.38 39.75 39.80 40.06 40.04 39.82 37.54 35.98 33.84 32.01 31.91 29.46 28.62 27.46 25.83 24.82 23.62 22.66 22.38 21.33 20.86 18.55 20.15 20.57 21.39 21.79 21.71 21.74 23.97 23.11 19.12 16.60 15.92 17.18 18.12 12.27 17.88 14.14 9.11 9.37
27.28 34.53 35.32 35.30 39.26 40.08 38.87 39.04 39.99 40.00 38.98 37.21 35.59 33.04 32.97 31.01 30.44 28.43 26.80 25.85 24.65 24.06 23.43 22.21 21.63 20.44 21.08 22.08 22.59 22.54 22.76 23.43 24.00 21.21 20.38 18.48 18.03 17.87 22.86 22.72 21.96 20.86 19.47 15.51
34.06 38.26 37.96 38.40 39.28 40.33 38.84 38.77 39.32 39.06 39.42 37.86 36.81 35.00 33.80 32.27 31.32 30.23 28.33 26.59 25.48 24.62 24.30 23.24 22.27 21.17 21.77 23.06 23.33 23.27 22.74 24.11 23.11 21.71 20.08 18.53 18.73 18.25 16.22 19.85 22.03 21.54 20.81 20.46
38.23 37.99 35.46 36.66 35.72 40.10 39.78 39.52 40.92 39.11 39.17 39.52 38.75 36.31 34.49 33.34 32.45 29.88 27.73 27.23 26.45 25.05 24.04 23.59 23.36 21.95 23.01 23.33 23.11 23.38 23.54 22.98 23.30 21.18 20.04 18.61 18.19 17.17 16.79 15.86 13.40 10.59 18.76 17.94
37.20 38.29 37.34 38.65 38.77 39.08 38.98 37.83 36.97 36.12 36.57 36.43 37.09 35.04 33.98 32.18 31.11 29.57 28.53 27.39 26.21 24.59 23.90 23.43 23.18 22.15 23.61 23.86 23.33 22.92 23.50 20.20 21.40 22.08 21.86 20.05 18.76 17.60 16.25 15.27 14.51 13.31 12.21 12.79
37.36 37.24 37.45 36.70 37.90 38.07 37.26 36.61 35.68 35.13 35.35 33.83 33.26 33.04 32.94 32.43 31.64 28.80 27.61 26.67 24.32 22.92 23.38 22.96 22.92 22.79 24.31 24.08 23.29 23.17 21.38 20.45 19.21 19.15 19.01 19.51 20.15 19.09 18.78 17.33 15.88 13.53 9.32 8.43
33.62 33.22 33.95 34.17 36.22 36.20 36.35 36.30 36.11 35.78 34.51 31.82 31.25 31.09 31.09 30.56 27.88 25.79 25.75 26.18 25.09 23.51 23.75 22.95 21.85 22.76 23.61 23.28 22.47 21.15 21.81 20.95 20.19 19.95 20.28 19.23 18.31 17.30 16.74 17.06 15.37 12.90 9.45 7.42
37.97 37.68 37.61 37.00 36.79 35.22 33.81 33.93 33.05 32.30 31.13 30.68 25.30 24.18 24.09 24.21 24.10 20.49 19.38 18.90 18.11 16.95 17.38 20.74 21.95 21.79 21.80 23.04 22.93 23.32 22.65 21.62 21.56 20.87 21.38 19.70 19.26 18.11 17.31 15.87 14.13 11.83 10.22 8.58
38.19 36.89 37.26 38.19 37.44 34.85 32.20 30.76 28.61 26.12 22.52 21.67 22.33 19.21 16.97 15.09 15.86 15.31 18.36 20.27 19.97 19.13 14.69 20.75 23.55 22.26 22.05 22.66 23.33 23.20 22.26 21.47 20.90 20.67 20.90 17.55 16.40 15.54 15.03 15.23 14.33 12.77 11.78 11.09
32.81 32.60 32.30 31.49 30.70 29.43 25.19 21.28 21.77 20.25 15.50 19.90 18.63 16.94 14.06 9.51 15.29 17.88 22.63 18.54 17.43 19.75 21.23 22.49 22.76 22.68 23.13 23.68 23.15 22.49 20.93 18.73 19.63 16.97 16.29 16.09 15.01 12.43 12.24 12.58 12.91 12.13 11.79 11.21
28.62 27.68 26.89 27.07 24.04 20.66 20.00 19.22 21.82 20.11 14.07 17.60 18.02 14.98 15.34 9.41 14.94 20.83 20.26 19.53 19.79 21.73 23.10 22.82 23.39 23.50 24.48 22.63 20.95 20.02 18.49 16.84 17.33 16.62 14.80 14.75 13.75 12.58 12.18 12.63 12.77 11.66 10.83 10.73
29.06 27.60 25.93 25.12 25.14 26.23 25.49 24.68 23.41 24.44 26.08 23.91 20.65 23.40 21.74 18.52 20.06 18.54 14.61 20.32 22.49 17.72 21.12 22.18 22.36 21.14 22.05 20.20 20.71 18.30 16.28 17.73 17.14 15.49 14.56 14.28 14.71 13.01 11.84 12.10 11.18 10.48 10.23 9.13
28.33 26.72 26.35 27.02 26.71 26.41 26.88 26.98 26.77 26.63 26.22 25.67 24.60 23.32 22.61 20.07 20.74 19.91 17.90 22.93 22.82 17.17 20.89 18.71 15.19 16.27 15.46 15.04 15.69 17.52 17.61 17.20 16.32 16.25 16.32 15.84 14.33 14.81 13.80 12.47 11.66 10.38 8.15 6.41
25.99 24.84 24.68 26.17 27.02 26.22 24.68 25.34 26.04 25.91 25.60 25.23 24.19 22.84 20.77 17.85 13.77 21.64 20.43 22.89 21.12 18.19 15.54 13.95 15.36 15.26 13.01 13.08 15.04 15.36 16.10 17.48 18.05 18.51 15.79 12.54 13.42 12.64 11.61 10.44 8.87 7.20 5.70 4.66
28.61 28.21 26.82 25.00 24.57 25.78 26.14 26.56 26.09 25.90 25.59 25.44 24.93 22.19 22.23 21.40 16.57 15.38 17.24 16.56 16.47 14.49 14.34 12.72 14.84 13.02 12.14 13.19 14.94 15.84 15.85 16.00 15.24 13.37 11.27 10.72 9.22 7.77 7.49 6.41 6.34 5.55 4.31 2.09
29.33 28.61 28.41 28.65 27.75 27.10 26.61 26.57 24.98 24.97 24.63 23.34 23.51 16.33 12.60 18.02 18.55 17.25 15.14 15.39 15.45 14.14 13.48 14.30 16.17 14.29 14.62 16.44 17.22 16.30 15.03 13.55 11.62 10.38 10.67 10.65 9.36 8.52 7.19 4.06 3.21 3.01 0.97 -1.95
29.06 28.81 29.02 29.19 29.02 27.95 27.26 26.11 22.24 21.82 21.18 18.45 16.90 21.90 20.76 14.80 13.70 15.55 13.12 13.72 14.53 14.70 15.60 16.12 18.57 17.62 15.17 14.93 12.99 13.05 12.29 11.57 10.04 10.22 9.34 7.21 5.42 6.27 5.82 2.69 0.77 -1.97 -3.27 -4.70
MSLP
1011.00 1010.54 1009.70 1008.77 1008.70 1009.18 1009.73 1010.43 1011.23 1011.28 1011.11 1011.04 1011.00 1010.94 1011.19 1011.80 1013.08 1014.88 1016.35 1017.75 1018.90 1020.11 1021.27 1022.27 1023.24 1024.18 1025.04 1025.49 1026.00 1026.15 1026.70 1026.83 1027.08 1027.13 1027.23 1027.13 1026.87 1026.66 1026.27 1026.20 1026.23 1025.69 1025.07 1024.66
1011.58 1011.00 1010.23 1009.46 1009.19 1009.18 1009.65 1010.08 1010.31 1010.59 1010.47 1010.52 1010.33 1010.64 1011.24 1011.79 1013.04 1014.46 1015.61 1016.87 1018.16 1019.37 1020.61 1021.70 1022.69 1023.64 1024.55 1025.25 1025.76 1026.19 1026.81 1027.16 1027.10 1027.38 1027.39 1027.38 1027.24 1027.11 1026.83 1026.77 1026.74 1026.25 1025.81 1025.35
1011.85 1011.00 1010.55 1009.83 1008.60 1009.10 1009.47 1009.55 1009.73 1009.87 1009.46 1009.74 1010.28 1010.48 1010.51 1011.44 1012.66 1013.65 1014.86 1016.04 1017.36 1018.49 1019.72 1020.95 1021.96 1022.84 1023.87 1024.68 1025.34 1026.13 1026.59 1027.01 1027.22 1027.47 1027.54 1027.49 1027.45 1027.45 1027.52 1027.34 1027.10 1026.89 1026.46 1026.01
1012.01 1011.37 1010.39 1008.49 1008.07 1008.36 1008.99 1009.01 1009.17 1008.93 1009.07 1009.38 1009.97 1010.66 1011.06 1011.39 1012.14 1013.47 1014.62 1015.80 1017.01 1018.06 1019.24 1020.38 1021.45 1022.52 1023.41 1024.28 1025.18 1025.70 1026.20 1026.91 1027.22 1027.44 1027.55 1027.53 1027.56 1027.71 1027.85 1027.80 1027.50 1027.39 1027.15 1026.65
1012.52 1011.64 1010.28 1008.38 1008.05 1008.33 1008.54 1007.66 1008.22 1008.63 1009.07 1009.76 1010.84 1011.62 1012.41 1012.38 1012.74 1013.55 1014.31 1015.31 1016.36 1017.39 1018.70 1019.94 1020.98 1022.01 1023.00 1024.12 1024.83 1025.31 1025.93 1026.41 1026.74 1027.10 1027.39 1027.44 1027.72 1027.89 1028.07 1028.10 1028.02 1027.61 1027.57 1027.39
1012.24 1011.46 1010.07 1007.93 1007.08 1007.04 1007.90 1007.59 1007.43 1007.84 1008.97 1010.43 1011.54 1012.86 1013.19 1013.47 1013.85 1014.32 1014.96 1015.72 1016.74 1017.85 1018.85 1019.89 1020.91 1021.68 1022.78 1023.65 1024.37 1025.03 1025.59 1025.97 1026.36 1026.64 1026.76 1027.04 1027.27 1027.52 1027.93 1028.21 1028.23 1028.10 1028.00 1027.99
1011.27 1010.62 1009.29 1007.77 1006.97 1006.96 1008.00 1007.42 1006.70 1007.61 1008.88 1010.54 1011.76 1012.68 1012.92 1013.94 1014.79 1015.32 1015.86 1016.43 1017.37 1018.08 1018.87 1019.80 1020.71 1021.64 1022.66 1023.37 1024.08 1024.55 1025.13 1025.70 1026.16 1026.45 1026.59 1026.74 1026.95 1027.13 1027.57 1028.02 1028.31 1028.42 1028.46 1028.47
1010.55 1009.96 1008.86 1007.04 1007.06 1007.03 1006.96 1006.67 1006.92 1007.89 1009.05 1010.85 1012.00 1013.16 1013.98 1014.65 1015.40 1016.01 1016.64 1017.48 1018.15 1018.83 1019.77 1020.28 1020.85 1021.59 1022.68 1023.38 1024.06 1024.45 1025.00 1025.62 1026.04 1026.34 1026.64 1026.75 1026.86 1027.02 1027.19 1027.72 1028.12 1028.42 1028.59 1028.79
1008.87 1007.92 1007.31 1006.64 1006.34 1006.09 1006.39 1006.93 1007.65 1008.43 1009.85 1010.75 1012.16 1013.31 1014.24 1014.95 1015.67 1016.44 1017.08 1017.88 1018.75 1019.19 1020.33 1020.83 1021.08 1021.49 1022.51 1023.41 1023.93 1024.51 1025.16 1025.79 1026.08 1026.42 1026.74 1026.93 1027.14 1027.36 1027.44 1027.67 1028.07 1028.52 1029.00 1029.27
1008.18 1007.36 1007.03 1006.76 1006.59 1006.30 1006.36 1006.78 1007.50 1008.35 1009.74 1010.85 1011.76 1013.06 1013.95 1014.83 1015.64 1016.47 1017.31 1018.12 1018.89 1019.75 1020.48 1021.20 1021.42 1021.76 1022.04 1023.12 1023.74 1024.35 1025.08 1025.75 1026.20 1026.58 1027.10 1027.30 1027.51 1027.70 1027.86 1028.13 1028.33 1028.79 1029.40 1029.63
1007.31 1006.98 1006.88 1006.61 1006.59 1006.81 1006.89 1007.04 1007.48 1008.30 1008.95 1010.09 1011.26 1012.52 1013.18 1014.34 1015.29 1016.18 1017.02 1017.88 1018.66 1019.44 1020.21 1020.88 1021.50 1022.00 1022.51 1023.06 1023.60 1024.33 1024.99 1025.54 1026.00 1026.49 1027.05 1027.55 1027.79 1027.91 1028.10 1028.35 1028.25 1028.78 1029.51 1029.65
1006.84 1006.53 1006.40 1006.49 1006.28 1006.45 1006.86 1007.10 1007.26 1007.79 1008.79 1009.68 1010.50 1011.43 1012.58 1013.71 1014.65 1015.59 1016.50 1017.38 1018.33 1019.14 1019.80 1020.57 1021.28 1021.94 1022.53 1023.03 1023.50 1024.10 1024.79 1025.36 1025.84 1026.51 1027.02 1027.49 1027.74 1028.00 1027.97 1028.06 1028.31 1028.68 1029.14 1029.25
1006.08 1005.83 1006.05 1006.08 1006.09 1006.10 1006.48 1006.60 1006.93 1007.54 1008.23 1009.20 1010.10 1011.01 1012.10 1013.09 1013.94 1014.85 1015.83 1016.74 1017.62 1018.32 1019.13 1019.98 1020.77 1021.49 1022.11 1022.64 1023.17 1023.67 1024.19 1024.82 1025.48 1026.16 1026.81 1027.33 1027.76 1027.94 1028.08 1028.45 1028.49 1028.71 1028.96 1029.06
1005.67 1005.92 1005.90 1006.02 1006.16 1006.06 1006.19 1006.54 1006.78 1007.22 1007.80 1008.56 1009.42 1010.58 1011.63 1012.56 1013.54 1014.30 1015.10 1015.92 1016.93 1017.80 1018.65 1019.40 1020.19 1020.88 1021.48 1022.17 1022.86 1023.38 1023.87 1024.32 1024.95 1025.65 1026.22 1026.91 1027.51 1027.90 1028.12 1028.45 1028.88 1029.19 1029.20 1029.45
1004.96 1005.13 1005.22 1005.03 1005.46 1005.88 1006.18 1006.66 1007.15 1007.66 1008.15 1008.98 1009.61 1010.38 1011.43 1012.30 1012.94 1013.66 1014.57 1015.50 1016.45 1017.43 1018.31 1019.05 1019.76 1020.44 1021.08 1021.78 1022.42 1023.03 1023.53 1024.13 1024.57 1025.16 1025.79 1026.45 1027.11 1027.62 1028.07 1028.52 1029.01 1029.45 1029.75 1030.08
1004.22 1004.54 1004.89 1005.16 1005.33 1005.77 1006.23 1006.81 1007.36 1008.07 1008.50 1009.30 1009.91 1010.61 1011.20 1011.72 1012.53 1013.42 1014.21 1015.13 1016.16 1017.08 1017.78 1018.48 1019.17 1019.79 1020.49 1021.17 1021.85 1022.54 1023.10 1023.59 1024.24 1024.86 1025.46 1026.05 1026.50 1027.16 1027.75 1028.33 1028.93 1029.47 1029.91 1030.27
1004.06 1004.58 1004.69 1004.98 1005.49 1005.97 1006.37 1006.74 1007.47 1008.21 1008.90 1009.61 1010.19 1010.69 1011.35 1012.32 1013.16 1013.75 1014.32 1014.80 1015.44 1016.33 1017.10 1017.84 1018.60 1019.37 1020.07 1020.74 1021.39 1022.14 1022.79 1023.48 1023.93 1024.61 1025.12 1025.67 1026.20 1026.70 1027.22 1027.89 1028.62 1029.31 1029.90 1030.15
1003.74 1004.04 1004.34 1004.49 1005.25 1006.09 1006.93 1007.46 1008.08 1008.60 1009.32 1010.02 1010.71 1011.16 1012.07 1012.83 1013.42 1014.04 1014.64 1015.15 1016.02 1016.85 1017.28 1017.58 1018.28 1019.12 1019.89 1020.51 1021.13 1021.86 1022.47 1023.17 1023.81 1024.35 1024.89 1025.50 1026.05 1026.53 1027.14 1027.79 1028.57 1029.23 1029.87 1030.22
1004.01 1004.39 1004.70 1004.87 1005.71 1006.38 1007.40 1008.38 1009.04 1009.48 1010.13 1010.78 1011.43 1012.26 1012.67 1013.19 1013.81 1014.51 1014.92 1015.52 1016.30 1017.05 1017.74 1017.79 1018.30 1019.03 1019.84 1020.50 1021.07 1021.76 1022.42 1023.09 1023.67 1024.27 1024.78 1025.52 1026.14 1026.72 1027.32 1027.84 1028.41 1028.95 1029.57 1030.14
1005.18 1005.51 1005.64 1006.22 1007.29 1007.86 1008.84 1009.56 1009.98 1010.63 1011.22 1011.63 1012.40 1013.16 1013.96 1014.47 1014.80 1015.11 1015.37 1016.13 1016.38 1016.55 1017.31 1017.87 1018.50 1019.21 1019.89 1020.55 1021.14 1021.84 1022.51 1023.18 1023.75 1024.41 1024.99 1025.59 1026.21 1026.85 1027.38 1027.79 1028.33 1028.86 1029.36 1029.92
1006.49 1007.01 1007.18 1007.73 1008.95 1009.59 1009.93 1010.37 1010.79 1011.49 1012.04 1012.47 1012.99 1013.79 1014.40 1015.22 1015.19 1015.41 1016.01 1016.62 1017.18 1017.19 1017.57 1018.12 1018.70 1019.47 1020.13 1020.80 1021.38 1021.97 1022.54 1023.25 1023.84 1024.50 1025.12 1025.73 1026.28 1026.81 1027.32 1027.74 1028.21 1028.70 1029.27 1029.83
1007.82 1008.20 1008.73 1009.26 1009.92 1010.46 1010.87 1011.13 1011.42 1011.91 1012.55 1013.14 1013.67 1014.20 1014.82 1015.41 1015.69 1016.13 1016.26 1016.53 1017.26 1017.67 1018.10 1018.66 1019.22 1019.76 1020.33 1020.95 1021.47 1022.08 1022.70 1023.28 1023.82 1024.43 1025.08 1025.68 1026.21 1026.79 1027.34 1027.79 1028.29 1028.70 1029.16 1029.73
1008.87 1009.27 1009.63 1010.02 1010.33 1010.86 1011.23 1011.54 1011.93 1012.33 1012.90 1013.37 1013.86 1014.38 1014.90 1015.34 1015.70 1016.23 1016.81 1017.00 1017.42 1018.01 1018.43 1018.96 1019.40 1019.91 1020.46 1021.00 1021.51 1022.12 1022.71 1023.28 1023.84 1024.40 1024.97 1025.52 1026.05 1026.51 1027.03 1027.62 1028.12 1028.63 1029.21 1029.78
1009.47 1009.85 1010.20 1010.47 1010.85 1011.29 1011.71 1012.13 1012.45 1012.80 1013.17 1013.61 1014.03 1014.51 1015.09 1015.73 1016.25 1016.25 1016.53 1017.07 1017.64 1018.21 1018.68 1019.17 1019.66 1020.14 1020.65 1021.15 1021.64 1022.15 1022.72 1023.24 1023.77 1024.32 1024.92 1025.45 1025.96 1026.46 1027.00 1027.52 1028.15 1028.68 1029.24 1029.82
1009.64 1010.08 1010.52 1010.95 1011.31 1011.63 1012.03 1012.44 1012.79 1013.18 1013.55 1013.93 1014.39 1014.89 1015.29 1015.59 1016.05 1016.68 1016.93 1017.46 1018.00 1018.50 1019.00 1019.35 1019.87 1020.44 1020.92 1021.35 1021.86 1022.38 1022.89 1023.40 1023.93 1024.47 1025.06 1025.59 1026.13 1026.66 1027.15 1027.65 1028.23 1028.75 1029.38 1029.92
1009.88 1010.20 1010.57 1010.88 1011.16 1011.59 1012.07 1012.54 1013.00 1013.43 1013.85 1014.35 1014.75 1015.18 1015.80 1015.81 1016.29 1016.84 1017.30 1017.72 1018.22 1018.69 1019.21 1019.67 1020.11 1020.57 1021.04 1021.51 1022.01 1022.55 1023.10 1023.68 1024.18 1024.71 1025.29 1025.85 1026.36 1026.85 1027.39 1027.97 1028.55 1028.93 1029.51 1030.15
1009.91 1010.18 1010.55 1010.91 1011.20 1011.58 1011.98 1012.43 1013.04 1013.51 1013.96 1014.42 1014.95 1015.24 1015.81 1016.29 1016.72 1017.16 1017.64 1018.13 1018.52 1018.96 1019.42 1019.78 1020.29 1020.73 1021.20 1021.75 1022.27 1022.80 1023.35 1023.92 1024.42 1024.92 1025.56 1026.08 1026.54 1026.92 1027.41 1028.08 1028.63 1029.23 1029.79 1030.31
Wind_Speed
9 15 17 4 4 9 7 6 8 8 10 8 9 10 9 8 8 11 13 14 14 12 10 9 9 8 7 6 4 4 5 5 3 2 2 3 4 5 7 8 7 7 9 10
4 8 6 5 12 3 1 2 3 6 8 8 8 5 9 11 12 13 14 14 14 12 12 12 11 10 10 8 6 6 5 4 2 3 3 3 3 6 6 7 6 6 8 8
8 15 2 6 7 5 4 5 6 7 8 6 7 8 7 11 13 14 14 15 15 14 13 12 12 12 10 10 8 7 6 3 3 2 3 2 4 6 5 3 4 6 7 7
3 4 8 11 6 7 10 11 9 11 4 6 5 4 4 4 10 9 10 12 11 12 12 11 11 11 11 11 9 8 7 6 4 3 3 2 4 4 2 2 3 2 6 7
3 5 6 8 6 7 9 22 11 9 7 4 7 5 5 3 3 7 9 10 11 12 12 11 13 13 13 11 10 9 8 8 7 5 4 3 4 5 2 3 2 3 3 6
4 5 7 6 8 6 5 15 9 11 8 12 7 4 6 5 2 4 4 7 12 12 12 13 12 13 13 12 10 9 9 8 7 6 6 5 4 4 4 3 2 4 7 6
8 5 7 7 7 4 10 9 7 8 8 10 7 5 5 8 3 3 3 8 9 11 12 12 12 12 10 10 10 7 9 8 7 6 5 5 4 3 6 6 5 5 6 5
5 6 9 6 3 8 8 1 4 6 6 6 6 5 5 5 6 7 9 6 5 10 8 5 10 12 11 11 7 7 7 6 5 3 2 2 3 1 5 8 6 5 6 6
8 7 6 5 4 1 5 5 4 7 5 10 10 7 8 7 8 6 7 7 3 10 9 2 5 12 13 9 9 8 7 6 4 4 4 3 5 3 5 5 4 5 5 3
4 4 5 6 0 3 4 6 7 6 8 8 9 9 10 8 8 8 8 9 7 9 9 7 3 6 9 11 9 10 8 6 4 7 5 4 4 3 4 4 4 5 4 2
3 4 1 3 6 6 6 8 7 6 9 10 8 9 10 9 10 9 10 9 10 10 9 9 7 6 8 10 10 10 8 6 7 6 6 5 3 3 3 0 5 6 3 3
5 7 5 6 7 7 8 7 8 9 5 4 8 11 9 9 10 11 11 10 9 9 9 9 9 9 9 10 10 10 10 7 6 6 5 6 6 5 11 12 14 13 10 5
6 5 6 7 7 7 8 9 8 9 8 10 7 7 9 8 11 13 11 12 12 13 11 11 11 10 10 11 11 11 10 9 7 8 6 7 7 7 7 7 12 12 10 7
5 5 5 6 7 8 7 7 7 4 6 9 11 9 10 8 9 12 13 13 12 12 11 12 12 12 12 12 11 10 8 8 7 7 7 7 6 6 6 7 5 1 6 4
9 8 7 8 6 8 6 7 7 6 5 6 7 9 10 10 10 12 11 12 12 11 11 12 11 11 12 12 12 9 8 4 6 6 7 8 6 6 5 5 5 4 1 3
12 8 8 6 9 9 8 7 7 6 6 5 7 8 9 8 8 9 12 13 13 12 13 12 12 11 13 13 12 8 6 8 6 6 6 6 7 7 7 6 6 5 3 2
4 5 6 5 8 8 10 8 9 7 7 8 8 7 8 7 6 7 9 11 10 11 14 13 12 11 12 11 10 6 6 7 9 6 6 6 5 5 4 6 6 5 3 2
8 7 6 7 11 9 7 7 7 7 6 8 6 7 7 8 8 7 7 8 8 7 5 9 11 11 10 11 10 8 8 7 7 6 6 5 4 4 5 6 6 6 3 3
5 7 5 9 6 10 9 8 6 7 7 7 7 6 4 4 6 6 7 9 9 10 2 8 14 13 11 10 10 7 7 8 6 6 5 6 4 4 5 5 6 6 5 5
10 9 11 13 10 9 10 6 8 8 4 7 8 7 7 4 6 7 6 5 3 4 9 11 12 11 11 11 10 7 7 6 7 6 5 5 6 5 4 6 6 5 5 5
11 9 12 12 11 7 7 5 8 8 4 6 7 6 7 4 5 8 8 5 1 8 9 11 9 7 7 7 7 6 6 6 7 6 6 6 6 5 5 5 5 5 5 5
8 9 10 9 9 9 6 6 6 7 7 7 6 7 8 5 6 4 2 5 5 7 7 5 6 8 7 9 6 6 5 7 6 5 5 5 6 6 5 5 5 5 5 5
7 7 8 7 8 7 6 6 6 6 6 6 6 6 6 5 5 6 4 5 7 6 6 5 6 9 9 5 5 6 6 7 6 6 5 5 5 5 6 6 5 5 5 5
7 5 5 6 7 7 7 4 5 5 5 5 5 5 6 4 2 2 4 9 8 8 5 5 6 8 8 4 5 6 6 6 6 6 5 5 4 4 5 5 5 4 5 5
6 6 7 6 5 4 6 6 5 5 5 5 5 4 5 2 4 2 4 4 8 6 4 6 8 9 5 5 5 5 5 5 5 5 5 5 5 4 4 4 5 5 5 4
5 4 4 6 5 5 5 5 4 4 4 3 2 2 2 3 4 5 4 6 5 6 5 4 5 5 5 5 6 6 5 6 5 5 6 5 5 5 5 5 4 4 5 4
3 4 4 3 4 5 5 5 4 4 4 3 3 2 5 4 4 5 5 5 5 4 4 4 6 5 5 5 5 5 5 5 5 5 4 4 4 5 5 5 4 4 4 5
Wind_Direction
226 274 271 294 248 189 171 178 185 220 212 190 207 208 189 211 142 151 165 170 177 172 167 161 153 151 156 145 137 130 120 108 93 21 55 66 50 59 62 50 27 20 27 17
278 222 265 200 217 175 129 155 208 172 253 182 224 202 167 173 166 176 183 184 180 172 167 168 167 163 161 153 147 138 133 123 114 82 77 83 77 73 64 58 33 21 22 14
239 249 120 316 194 176 198 205 167 202 221 172 215 215 190 185 184 178 181 181 179 175 169 170 171 163 161 153 146 148 136 135 131 128 109 118 111 87 70 45 38 26 24 16
252 143 206 239 163 186 210 235 226 248 204 196 210 98 95 150 163 175 172 170 171 167 165 163 158 156 145 148 153 150 144 152 167 154 144 134 116 114 80 38 51 25 27 22
209 216 303 275 184 181 181 252 225 227 238 133 115 72 358 4 125 179 175 173 169 161 154 151 156 152 148 153 154 150 157 166 168 165 154 142 129 149 158 86 37 36 34 20
168 217 213 255 233 193 110 266 197 191 182 148 149 115 241 197 146 124 126 142 145 146 147 146 156 150 153 159 158 165 169 170 170 172 167 163 173 167 151 156 141 68 57 25
212 229 277 245 262 95 161 247 207 166 155 152 164 183 158 132 119 109 140 136 128 140 153 154 149 148 147 149 163 157 161 165 172 177 174 182 195 191 146 152 142 104 82 50
186 216 253 223 329 206 222 279 143 123 127 117 118 113 123 136 150 145 135 118 116 129 137 140 146 142 148 153 151 135 128 131 139 145 159 156 132 75 142 150 141 113 85 64
184 205 224 275 210 348 168 153 149 113 133 143 139 166 169 163 157 152 145 130 94 137 132 86 135 152 149 158 148 136 130 139 135 108 94 79 106 76 93 106 116 115 92 64
109 237 216 208 18 125 110 122 131 132 144 165 158 166 172 160 162 159 154 153 142 139 151 155 151 147 151 154 147 141 142 148 131 123 105 80 77 71 107 110 103 103 106 81
251 290 266 235 168 166 139 117 108 132 158 180 152 178 169 173 173 172 164 154 159 164 166 165 154 139 148 150 148 150 153 156 149 137 127 109 92 114 108 219 129 129 148 145
220 220 194 218 201 193 172 187 178 161 135 172 175 172 161 175 174 167 167 159 163 168 164 160 156 152 155 158 157 160 168 171 152 144 140 133 128 117 113 119 122 122 128 129
193 199 205 210 199 171 171 177 174 172 182 177 176 157 163 166 176 167 163 164 174 177 168 161 160 160 164 167 168 174 174 174 157 157 154 152 152 145 135 119 120 122 126 125
200 219 221 165 204 207 165 159 141 133 174 177 169 156 163 158 156 165 172 176 168 163 165 166 166 171 171 171 175 181 180 179 167 164 165 163 164 160 155 153 149 137 128 117
255 206 225 200 188 182 154 145 145 146 133 134 161 162 163 161 165 181 167 162 160 159 161 166 170 174 169 174 180 182 181 174 170 173 168 168 166 162 164 158 161 155 97 39
230 208 212 203 193 180 157 156 145 173 148 133 144 163 178 172 172 154 156 155 153 175 173 171 174 172 170 175 180 180 176 160 147 146 150 160 164 169 172 173 165 167 146 174
154 243 219 190 182 172 177 169 164 169 152 150 154 149 141 142 135 142 162 173 168 166 171 166 170 163 166 166 162 154 147 152 147 144 153 154 154 156 148 144 149 150 161 182
212 232 221 185 178 163 141 137 138 140 141 147 129 119 126 151 166 154 139 119 102 87 143 160 154 151 153 157 150 149 148 147 153 156 154 145 146 137 136 137 143 147 151 149
127 115 108 95 123 126 124 125 106 103 105 123 120 134 135 114 128 129 127 123 131 137 200 142 148 143 144 148 142 142 145 152 153 152 146 137 122 124 134 140 150 153 152 148
88 81 89 87 79 104 105 84 103 97 82 99 104 103 101 89 116 108 114 107 128 140 137 136 138 140 143 141 136 142 151 142 140 135 133 137 142 143 144 142 149 157 154 154
83 82 87 95 87 76 88 104 110 107 101 100 114 125 129 128 103 120 116 115 98 131 132 133 134 136 144 145 145 145 139 135 143 146 147 153 144 147 147 148 151 150 152 153
89 92 93 94 105 104 100 102 99 105 104 105 102 118 123 119 118 73 49 139 147 138 134 132 140 151 149 144 146 143 134 143 147 144 149 157 157 159 162 160 158 156 153 151
102 103 105 108 108 108 97 94 94 106 114 121 126 129 140 150 146 135 133 147 149 149 141 141 144 147 142 132 135 140 140 146 150 149 153 154 157 163 161 168 161 152 148 146
116 107 104 101 103 107 112 101 107 107 109 112 119 131 136 122 25 69 105 152 150 147 135 145 152 146 134 134 132 135 139 145 150 150 145 141 145 137 143 144 143 137 132 134
117 116 122 122 127 125 125 128 116 116 120 123 121 140 138 128 136 184 126 130 142 130 132 140 144 138 127 128 127 129 130 133 140 138 137 136 133 130 130 130 142 148 144 146
133 139 149 159 154 148 143 143 135 134 129 123 116 126 113 107 108 117 114 127 129 131 135 144 145 130 128 128 130 132 133 133 131 129 136 137 138 139 139 131 139 141 141 143
132 132 138 138 135 147 155 155 142 155 142 141 143 147 129 112 113 121 120 120 122 119 125 123 137 133 124 124 119 125 124 124 127 137 132 132 131 139 141 147 144 136 137 142